Sauk Centre, MN

11:27 PM CDT on July 26, 2017 (GMT -0500)
Sauk Centre

Weather History for KD39 - January, 2014

Change the Weather History Date:

Thursday, January 23, 2014

  Actual Average (KGHW) Record (KGHW)
Temperature  
Mean Temperature -10 °F -  
Max Temperature 5 °F 21 °F 38 °F (1989)
Min Temperature -24 °F 0 °F -30 °F (1952)
Degree Days  
Heating Degree Days 75    
Moisture  
Dew Point -18 °F    
Average Humidity 75    
Maximum Humidity 82    
Minimum Humidity 68    
Precipitation  
Precipitation 0.00 in - - ()
Sea Level Pressure  
Sea Level Pressure 30.51 in    
Wind  
Wind Speed 10 mph (West)    
Max Wind Speed 20 mph    
Max Gust Speed 24 mph    
Visibility 10 miles    
Events      
Averages and records for this station are not official NWS values.
T = Trace of Precipitation, MM = Missing Value Source: NWS Daily Summary

Daily Weather History Graph

Daily Weather History Graph

Search for Another Location

Airport or City:

Trip Planner

Search our weather history database for the weather conditions in past years. The results will help you decide how hot, cold, wet, or windy it might be!

Date:

Astronomy

Jan. 23, 2014 Rise Set
Actual Time 7:50 AM CST 5:13 PM CST
Civil Twilight 7:18 AM CST 5:45 PM CST
Nautical Twilight 6:41 AM CST 6:21 PM CST
Astronomical Twilight 6:06 AM CST 6:57 PM CST
Moon 12:07 AM CST (1/23) 11:02 AM CST (1/23)
Length of Visible Light 10h 27m
Length of Day
9h 22m
Waning Gibbous, 55% of the Moon is Illuminated
Jan 23
Waning Gibbous
Jan 23
Last Quarter
Jan 30
New
Feb 6
First Quarter
Feb 14
Full

Hourly Weather History & Observations

Time (CST) Temp. Windchill Dew Point Humidity Pressure Visibility Wind Dir Wind Speed Gust Speed Precip Events Conditions
12:12 AM -17.5 °F -40.0 °F -22.9 °F 76% 30.53 in 10.0 mi NNW 12.7 mph 17.3 mph N/A   Clear
12:33 AM -17.7 °F -41.2 °F -23.1 °F 76% 30.54 in 10.0 mi NW 13.8 mph - N/A   Clear
12:52 AM -17.9 °F -39.5 °F -23.6 °F 75% 30.54 in 10.0 mi NW 11.5 mph - N/A   Clear
1:13 AM -18.0 °F -38.6 °F -23.8 °F 75% 30.55 in 10.0 mi NW 10.4 mph - N/A   Clear
1:33 AM -18.0 °F -38.6 °F -23.8 °F 75% 30.56 in 10.0 mi NW 10.4 mph - N/A   Clear
1:52 AM -18.4 °F -39.1 °F -23.8 °F 76% 30.56 in 10.0 mi NNW 10.4 mph - N/A   Clear
2:13 AM -18.4 °F -37.9 °F -24.0 °F 76% 30.57 in 10.0 mi NW 9.2 mph - N/A   Clear
2:32 AM -18.6 °F -39.3 °F -24.0 °F 76% 30.58 in 10.0 mi NW 10.4 mph - N/A   Clear
2:52 AM -18.6 °F -38.1 °F -24.0 °F 76% 30.59 in 10.0 mi NW 9.2 mph - N/A   Clear
3:13 AM -18.8 °F -37.0 °F -24.0 °F 77% 30.59 in 10.0 mi NW 8.1 mph - N/A   Clear
3:32 AM -18.9 °F -39.8 °F -24.5 °F 76% 30.60 in 10.0 mi NW 10.4 mph - N/A   Clear
3:52 AM -18.9 °F -39.8 °F -24.5 °F 76% 30.60 in 10.0 mi NW 10.4 mph - N/A   Clear
4:13 AM -19.3 °F -34.5 °F -24.7 °F 76% 30.61 in 10.0 mi NW 5.8 mph - N/A   Clear
4:32 AM -19.7 °F -36.6 °F -24.9 °F 77% 30.62 in 10.0 mi NW 6.9 mph - N/A   Clear
4:52 AM -19.8 °F -38.3 °F -25.6 °F 75% 30.62 in 10.0 mi NW 8.1 mph - N/A   Clear
5:13 AM -19.7 °F -36.6 °F -24.9 °F 77% 30.63 in 10.0 mi WNW 6.9 mph - N/A   Clear
5:32 AM -20.0 °F -38.6 °F -25.6 °F 75% 30.63 in 10.0 mi WNW 8.1 mph - N/A   Clear
5:52 AM -20.2 °F -37.3 °F -25.6 °F 76% 30.64 in 10.0 mi WNW 6.9 mph - N/A   Clear
6:13 AM -22.9 °F -38.7 °F -27.9 °F 77% 30.64 in 10.0 mi West 5.8 mph - N/A   Clear
6:32 AM -23.6 °F -39.6 °F -28.3 °F 79% 30.64 in 10.0 mi West 5.8 mph - N/A   Clear
6:52 AM -24.0 °F -40.0 °F -29.0 °F 77% 30.65 in 10.0 mi WNW 5.8 mph - N/A   Clear
7:13 AM -24.0 °F -40.0 °F -28.8 °F 78% 30.66 in 5.0 mi WNW 5.8 mph - N/A   Haze
7:32 AM -24.7 °F -42.7 °F -29.2 °F 79% 30.66 in 4.0 mi WNW 6.9 mph - N/A   Clear
7:53 AM -24.7 °F -38.7 °F -29.2 °F 79% 30.66 in 3.0 mi West 4.6 mph - N/A   Clear
8:13 AM -24.3 °F -38.3 °F -28.7 °F 80% 30.66 in 10.0 mi West 4.6 mph - N/A   Clear
8:32 AM -23.8 °F -39.8 °F -28.5 °F 79% 30.67 in 7.0 mi West 5.8 mph - N/A   Scattered Clouds
8:53 AM -22.7 °F -38.5 °F -27.6 °F 78% 30.67 in 10.0 mi West 5.8 mph - N/A   Scattered Clouds
9:13 AM -21.3 °F -38.6 °F -26.7 °F 76% 30.67 in 10.0 mi WNW 6.9 mph - N/A   Clear
9:32 AM -19.8 °F -38.3 °F -25.6 °F 75% 30.67 in 10.0 mi WNW 8.1 mph - N/A   Clear
9:53 AM -19.1 °F -40.0 °F -24.9 °F 75% 30.67 in 10.0 mi WNW 10.4 mph - N/A   Clear
10:13 AM -17.7 °F -38.2 °F -23.6 °F 74% 30.67 in 10.0 mi WNW 10.4 mph - N/A   Clear
10:32 AM -16.6 °F -34.4 °F -22.5 °F 74% 30.67 in 10.0 mi WNW 8.1 mph - N/A   Clear
10:53 AM -15.9 °F -33.5 °F -22.0 °F 74% 30.67 in 10.0 mi WNW 8.1 mph - N/A   Clear
11:13 AM -14.3 °F -30.1 °F -20.4 °F 74% 30.67 in 10.0 mi West 6.9 mph - N/A   Clear
11:32 AM -14.1 °F -31.3 °F -20.6 °F 73% 30.67 in 10.0 mi West 8.1 mph - N/A   Clear
11:53 AM -13.4 °F -30.4 °F -20.0 °F 72% 30.66 in 10.0 mi West 8.1 mph - N/A   Clear
12:13 PM -11.6 °F -30.6 °F -18.4 °F 72% 30.65 in 10.0 mi West 10.4 mph - N/A   Clear
12:32 PM -10.5 °F -29.2 °F -17.0 °F 73% 30.65 in 10.0 mi WSW 10.4 mph - N/A   Clear
12:53 PM -10.1 °F -28.8 °F -16.8 °F 72% 30.64 in 10.0 mi West 10.4 mph - N/A   Clear
1:13 PM -9.6 °F -28.1 °F -16.2 °F 73% 30.62 in 10.0 mi West 10.4 mph - N/A   Clear
1:32 PM -8.7 °F -28.0 °F -15.3 °F 73% 30.60 in 10.0 mi West 11.5 mph - N/A   Clear
1:53 PM -8.1 °F -27.3 °F -15.0 °F 72% 30.59 in 10.0 mi West 11.5 mph - N/A   Clear
2:13 PM -7.8 °F -26.8 °F -14.8 °F 71% 30.58 in 10.0 mi WSW 11.5 mph - N/A   Clear
2:33 PM -7.2 °F -25.2 °F -14.3 °F 71% 30.58 in 10.0 mi West 10.4 mph - N/A   Clear
2:53 PM -6.5 °F -23.3 °F -13.7 °F 71% 30.57 in 10.0 mi West 9.2 mph - N/A   Clear
3:12 PM -5.8 °F -18.4 °F -13.0 °F 71% 30.56 in 10.0 mi WSW 5.8 mph - N/A   Clear
3:33 PM -5.3 °F -17.8 °F -13.0 °F 69% 30.55 in 10.0 mi SW 5.8 mph - N/A   Clear
3:53 PM -5.3 °F -17.8 °F -13.0 °F 69% 30.54 in 10.0 mi SW 5.8 mph - N/A   Clear
4:12 PM -5.4 °F -19.5 °F -12.5 °F 72% 30.52 in 10.0 mi SSW 6.9 mph - N/A   Clear
4:33 PM -5.6 °F -16.5 °F -12.5 °F 72% 30.50 in 10.0 mi SW 4.6 mph - N/A   Clear
4:53 PM -6.7 °F -15.5 °F -13.0 °F 74% 30.49 in 10.0 mi South 3.5 mph - N/A   Clear
5:12 PM -8.1 °F -21.2 °F -14.3 °F 75% 30.49 in 10.0 mi South 5.8 mph - N/A   Clear
5:33 PM -9.6 °F -25.8 °F -14.8 °F 78% 30.46 in 10.0 mi South 8.1 mph - N/A   Clear
5:53 PM -9.6 °F -22.9 °F -14.4 °F 79% 30.45 in 10.0 mi South 5.8 mph - N/A   Clear
6:12 PM -10.3 °F -21.9 °F -14.8 °F 81% 30.42 in 10.0 mi South 4.6 mph - N/A   Clear
6:33 PM -10.3 °F -23.8 °F -14.4 °F 82% 30.40 in 10.0 mi South 5.8 mph - N/A   Clear
6:53 PM -8.9 °F -27.2 °F -13.0 °F 82% 30.38 in 10.0 mi South 10.4 mph - N/A   Clear
7:12 PM -8.9 °F -26.2 °F -13.2 °F 81% 30.36 in 10.0 mi South 9.2 mph - N/A   Clear
7:33 PM -8.9 °F -27.2 °F -13.0 °F 82% 30.33 in 10.0 mi South 10.4 mph - N/A   Clear
7:53 PM -7.6 °F -26.6 °F -11.9 °F 81% 30.31 in 10.0 mi South 11.5 mph - N/A   Clear
8:12 PM -5.8 °F -22.4 °F -10.3 °F 81% 30.30 in 10.0 mi South 9.2 mph - N/A   Clear
8:33 PM -4.2 °F -24.0 °F -9.4 °F 78% 30.27 in 10.0 mi South 13.8 mph - N/A   Clear
8:53 PM -3.3 °F -23.6 °F -8.5 °F 78% 30.24 in 10.0 mi South 15.0 mph - N/A   Clear
9:12 PM -1.5 °F -22.6 °F -7.1 °F 77% 30.21 in 10.0 mi South 17.3 mph 24.2 mph N/A   Clear
9:33 PM 0.1 °F -20.5 °F -5.8 °F 76% 30.18 in 10.0 mi South 17.3 mph - N/A   Clear
9:53 PM 2.3 °F -18.2 °F -4.4 °F 74% 30.16 in 10.0 mi SSW 18.4 mph 24.2 mph N/A   Scattered Clouds
10:12 PM 2.8 °F -17.5 °F -4.0 °F 73% 30.13 in 10.0 mi SSW 18.4 mph 23.0 mph N/A   Clear
10:33 PM 3.2 °F -17.6 °F -4.0 °F 72% 30.11 in 10.0 mi South 19.6 mph 24.2 mph N/A   Clear
10:53 PM 4.1 °F -15.3 °F -4.0 °F 69% 30.08 in 10.0 mi South 17.3 mph - N/A   Mostly Cloudy
11:12 PM 4.1 °F -14.7 °F -3.5 °F 71% 30.07 in 10.0 mi SSW 16.1 mph - N/A   Mostly Cloudy
11:33 PM 4.8 °F -14.4 °F -3.3 °F 69% 30.04 in 10.0 mi SSW 17.3 mph - N/A   Scattered Clouds
11:53 PM 5.5 °F -14.0 °F -3.1 °F 68% 30.01 in 10.0 mi SSW 18.4 mph - N/A   Scattered Clouds